Redding, CA

10:54 PM PDT on May 26, 2018 (GMT -0700)
Redding Municipal

Weather History for KRDD - October, 2011

Change the Weather History Date:

Sunday, October 9, 2011

  Actual Average Record
Temperature  
Mean Temperature 62 °F -  
Max Temperature 75 °F 82 °F 101 °F (1991)
Min Temperature 48 °F 52 °F 42 °F (1990)
Degree Days  
Heating Degree Days 3    
Month to date heating degree days 44  
Cooling Degree Days 0    
Month to date cooling degree days 1  
Year to date cooling degree days 1659  
Growing Degree Days 10 (Base 50)    
Moisture  
Dew Point 48 °F    
Average Humidity 63    
Maximum Humidity 93    
Minimum Humidity 33    
Precipitation  
Precipitation 0.00 in 0.04 in 0.62 in (2000)
Month to date precipitation 2.37 0.31  
Year to date precipitation 22.94 22.08  
Since 1 July precipitation 2.65  
Sea Level Pressure  
Sea Level Pressure 29.97 in    
Wind  
Wind Speed 1 mph (South)    
Max Wind Speed 8 mph    
Max Gust Speed -    
Visibility 10 miles    
Events      
T = Trace of Precipitation, MM = Missing Value Source: NWS Daily Summary

Daily Weather History Graph

Daily Weather History Graph

Search for Another Location

Airport or City:

Astronomy

Oct. 09, 2011 Rise Set
Actual Time 7:13 AM PDT 6:38 PM PDT
Civil Twilight 6:46 AM PDT 7:05 PM PDT
Nautical Twilight 6:14 AM PDT 7:37 PM PDT
Astronomical Twilight 5:42 AM PDT 8:09 PM PDT
Moon 5:18 PM PDT (10/9) 5:03 AM PDT (10/9)
Length of Visible Light 12h 19m
Length of Day
11h 24m
Waxing Gibbous, 95% of the Moon is Illuminated
Oct 9
Waxing Gibbous
Oct 11
Full
Oct 19
Last Quarter
Oct 26
New
Nov 2
First Quarter

Hourly Weather History & Observations

Time (PDT) Temp. Dew Point Humidity Pressure Visibility Wind Dir Wind Speed Gust Speed Precip Events Conditions
12:53 AM 53.1 °F 48.0 °F 83% 30.02 in 10.0 mi Calm Calm - N/A   Clear
1:53 AM 51.1 °F 48.0 °F 89% 30.02 in 10.0 mi NNE 3.5 mph - N/A   Clear
2:53 AM 52.0 °F 48.0 °F 86% 30.02 in 10.0 mi Calm Calm - N/A   Clear
3:53 AM 51.1 °F 48.9 °F 92% 30.00 in 10.0 mi NNW 3.5 mph - N/A   Clear
4:53 AM 51.1 °F 48.0 °F 89% 29.99 in 10.0 mi NW 3.5 mph - N/A   Clear
5:53 AM 48.2 °F 46.4 °F 93% 30.01 in 10.0 mi Calm Calm - N/A   Clear
6:53 AM 48.9 °F 46.0 °F 90% 30.02 in 10.0 mi Calm Calm - N/A   Clear
7:53 AM 50.0 °F 46.9 °F 89% 30.03 in 10.0 mi Calm Calm - N/A   Clear
8:53 AM 53.1 °F 48.0 °F 83% 30.05 in 10.0 mi Calm Calm - N/A   Clear
9:53 AM 57.0 °F 48.9 °F 74% 30.05 in 10.0 mi Calm Calm - N/A   Clear
10:53 AM 64.0 °F 48.0 °F 56% 30.02 in 10.0 mi Calm Calm - N/A   Clear
11:53 AM 66.2 °F 46.4 °F 49% 30.02 in 10.0 mi Calm Calm - N/A   Clear
12:53 PM 69.1 °F 46.0 °F 44% 29.98 in 10.0 mi WSW 3.5 mph - N/A   Clear
1:53 PM 72.0 °F 46.0 °F 40% 29.95 in 10.0 mi Calm Calm - N/A   Clear
2:53 PM 73.0 °F 42.1 °F 33% 29.93 in 10.0 mi Calm Calm - N/A   Clear
3:53 PM 73.9 °F 44.1 °F 34% 29.91 in 10.0 mi Calm Calm - N/A   Clear
4:53 PM 73.9 °F 46.9 °F 38% 29.90 in 10.0 mi SSE 5.8 mph - N/A   Clear
5:53 PM 73.0 °F 48.9 °F 42% 29.89 in 10.0 mi SE 3.5 mph - N/A   Clear
6:53 PM 70.0 °F 52.0 °F 53% 29.89 in 10.0 mi SSE 4.6 mph - N/A   Scattered Clouds
7:53 PM 69.1 °F 52.0 °F 54% 29.89 in 10.0 mi South 4.6 mph - N/A   Overcast
8:53 PM 64.9 °F 53.1 °F 65% 29.90 in 10.0 mi Calm Calm - N/A   Clear
9:53 PM 62.6 °F 51.8 °F 68% 29.91 in 10.0 mi Calm Calm - N/A   Partly Cloudy
10:53 PM 61.0 °F 54.0 °F 78% 29.90 in 10.0 mi Calm Calm - N/A   Scattered Clouds
11:53 PM 60.1 °F 52.0 °F 75% 29.90 in 10.0 mi Calm Calm - N/A   Partly Cloudy